Regional Weather Roundup
Issued by NWS Charleston, SC

Current Version | Previous Version | Graphics & Text | Print | Product List | Glossary On
Versions: 1 2 3 4 5 6 7 8 9 10 11 12 13 14 15 16 17 18 19 20 21 22 23 24 25 26 27 28 29 30 31 32 33 34 35 36 37 38 39 40 41 42 43 44 45 46 47 48 49 50
000
ASUS42 KCHS 232312
RWRCHS

Regional Weather Roundup
National Weather Service Charleston SC
700 PM EDT WED MAY 23 2018

NOTE: "fair" indicates few or no clouds below 12,000 feet with no
significant weather and/or obstructions to visibility.

Not all stations are quality controlled. Use data with caution,
especially dewpoint observations.

SCZ027-030-031-034>040-042>050-240000-
...Southeast South Carolina...

CITY           SKY/WX    TMP DP  RH WIND       PRES   REMARKS
N Charleston   PTSUNNY   79  65  62 S8        30.05S
Waterfront Prk   N/A     78  70  76 S7G14     29.89F
Mount Pleasant FAIR      79  70  73 S6        30.06S
Johns Island   FAIR      79  70  73 S14       30.05S
Pinopolis        N/A     82  73  74 CALM      29.98F
Moncks Corner  FAIR      77  73  88 CALM      30.04F
Summerville    FAIR      77  72  83 CALM      30.06S
Beaufort MCAS  FAIR      80  70  71 S7        30.06R
Beaufort Arpt  FAIR      77  70  78 S7        30.06R
Hilton Head Is MOSUNNY   77  70  78 S7G13     30.07S
Walterboro     FAIR      77  73  88 S5        30.06S
Allendale      FAIR      79  72  78 SE6       30.04R

...Southern Midlands and Pee Dee...

CITY           SKY/WX    TMP DP  RH WIND       PRES   REMARKS
Georgetown     FAIR      75  73  94 SW8       30.06S
Kingstree      FAIR      81  72  74 CALM      30.03F
Orangeburg     FAIR      79  70  74 CALM      30.05S
Barnwell       FAIR      81  70  69 CALM      30.04F
Aiken          FAIR      77  70  78 S3        30.08S
Manning        FAIR      73  66  78 S3        30.03F
Columbia       PTSUNNY   82  73  74 S7        30.02F
Sumter         MOSUNNY   81  71  71 SW7       30.01S
Florence       FAIR      80  68  66 SW6       30.03S
Myrtle Beach   FAIR      77  69  76 S9        30.05S
N Myrtle Beach FAIR      77  70  79 SW15      30.04S

$$

GAZ063-065-086>088-099>101-113>116-118-119-134>141-150-240000-
...Southeast Georgia...

CITY           SKY/WX    TMP DP  RH WIND       PRES   REMARKS
Savannah Arpt  PTSUNNY   81  68  64 S9        30.06R
Hunter AAF     FAIR      80  67  64 S10       30.03R
Fort Stewart   FAIR      81  72  72 SE7       30.03R
Statesboro     PTSUNNY   74  72  94 SE3       30.05R
Sylvania       DRIZZLE   77  72  84 S3        30.06R
Claxton        LGT RAIN  75  74  97 CALM      30.05S

...CSRA, Central and far Southeast Georgia...

CITY           SKY/WX    TMP DP  RH WIND       PRES   REMARKS
Thomson        FAIR      76  72  87 SW5       30.08F
Augusta-Bush   FAIR      76  71  85 SW6       30.03F
Augusta-Daniel PTSUNNY   78  70  76 SW3       30.04F
Swainsboro     FAIR      77  72  83 CALM      30.06R
Vidalia        PTSUNNY   77  70  78 E6        30.05R
Eastman        FAIR      76  66  72 S3        30.06S
Hazlehurst     FAIR      74  70  87 CALM      30.05R
Alma           FAIR      83  69  62 SW3       30.04R
Waycross       FAIR      84  73  69 CALM      30.04R HX  90
Jesup          NOT AVBL
Baxley         FAIR      81  73  78 S6        30.04R
Brunswick      FAIR      81  66  61 SE8       30.06R
Saint Simons   FAIR      79  71  76 SE7       30.05S

$$

SCZ027-028-034-036>038-045-046-048>050-GAZ119-141-240000-
...Lake and Supplemental Coastal Observations...

STATION/POSITION TIME  TEMP    WIND        PRES    WAVE   SWELL
                       AIR SEA DIR/SP/G            HT/PER HT/PER/DIR
                 (UTC) (F)     (DEG/KT/KT) (MB)    (FT/S) (FT/S/D)
Winyah Bay       2145   79     210/ 11     1018.0
Lake Murray      2220   82     210/ 12/ 13 1015.9
ACE Basin NERRS  2145   81     150/  2     1018.0
Fort Pulaski     2242   78 79  180/  5/  9 1018.2F
Sapelo Island    2200   82     170/ 10     1017.0

$$

ANZ835-935-AMZ111-154-330-350-352-354-370-450-454-472-240000-
...C-MAN and Buoy Observations...

STATION/POSITION TIME  TEMP    WIND        PRES    WAVE   SWELL
                       AIR SEA DIR/SP/G            HT/PER HT/PER/DIR
                 (UTC) (F)     (DEG/KT/KT) (MB)    (FT/S) (FT/S/D)
Buoy 41004       2250      76  200/ 10/ 12 1018.0F   3/ 8   3/120/ 8
Buoy 41008       2250   76 76  150/ 12/ 14 1017.3F   3/ 9   2/130/ 9
Folly Beach CMAN 2200   78     190/ 13/ 15 1018.6F
Capers Nearshore 2208   77 78  220/ 16/ 19 1018.3F
Fripp Nearshore  2208   77 79  190/ 14/ 19 1017.4S


STATION/POSITION TIME  TEMP    WIND        PRES    WAVE   SWELL
                       AIR SEA DIR/SP/G            HT/PER HT/PER/DIR
                 (UTC) (F)     (DEG/KT/KT) (MB)    (FT/S) (FT/S/D)
5E St. Marys GA  2300      77                N/A     3/ 9
Frying Pan Buoy  2250   76 76  210/ 16/ 17 1017.5F   3/ 8   2/120/ 8
Buoy 41025       2250   76 74  230/ 17/ 21 1016.4F   5/ 6   2/130/ 8
Cape Lookout NC  2200          220/ 10/ 15 1017.1R
Buoy 41002       2250      78  210/  8/ 10 1019.1F   3/ 9   3/130/ 9
Buoy 41010       2250   78 79  130/  8/ 12 1019.5S   4/ 8   3/100/ 8
St Augustine FL  2300   78 81  150/ 16/ 17 1018.1F


$$




USA.gov is the U.S. government's official web portal to all federal, state and local government web resources and services.